SL-8 DEB, 23007

Orbit data source: Space-Track

SL-8 DEB, 23007 is space debris in LEO originally from a launch on Wed, 16 Jun 1993 UTC launched from the Plesetsk Missile And Space Complex (PKMTR). Debris objects in space refer to the collection of defunct objects orbiting the Earth. Examples of debris include non-operational satellites, rocket bodies, and fragments generated from explosions, collisions, or faulty payload assembly.

Loading next visibility...
Identifier
23007, 1993-036C
Orbit
LEO
Country
Flag of CISCIS
Related business
Manufacturer
Unknown
Mission
Spacecraft
Bus & Motor
Unknown
Mass
Unknown
Launch date (UTC)
1993-06-16 (33 years ago)
Launch vehicle
Unknown
Launch site
Plesetsk Missile And Space Complex (PKMTR)
Object type
Payload
Rocket body
Debris
Shape & HBR
Unknown shape, 0.1 m
Radar Cross Section
Medium (>0.1 m² and <1 m²)

Expand to show TLE details & history
Last TLE update: 10 hours ago

TLE from 10 hours ago
0 SL-8 DEB
1 23007U 93036C   26257.39670715  .00000655  00000-0  18093-3 0  9993
2 23007  74.0245 307.1341 0011452 241.4173 131.8714 14.48693045742990
Epoch: 2026-09-14T09:31Z
TLE epoch observation values (Epoch: 2026-09-14T09:31:15.497Z)
Latitude
12.82833°
Longitude
174.6597°
Altitude
737.23 km
Speed
7.485 km/s
True Right ascension
20h 43m 24s
True Declination
12° 45' 14"
Sunlit
Object was in full shadow at epoch
Visualization orbit readout
Latitude
Unknown
Longitude
Unknown
Altitude
Unknown
Speed
Unknown
Apparent Right ascension
Unknown
Apparent Declination
Unknown
Sunlit
N/A
Visualization observer readout
Local Sidereal Time
12:15:02
Azimuth
Unknown
Elevation
Unknown
Doppler factor
Unknown
Orbital elements
Apogee altitude
735.669 km
Perigee altitude
719.394 km
Semi-major axis
7,105.668 km
Eccentricity
0.00115
Inclination
74.0245°
RAAN
307.1341°
Arg. of periapsis
241.4173°
True anomaly
131.96903°
Mean anomaly
131.8714°
Eccentric anomaly
131.92022°
Mean motion
3.62356 °/min
Orbital period
99.35 mins
BSTAR
0.00018093
Loading maneuver chart data...
Computing Atmospheric mass density...

Documentation

Showing up to 5 results
|